Location: Nians�bougou
(13.2321°N, 4.9818°W)
Time: 13:27:28
(UTC+00:00)

Cosmos 1943 - Pass Details

Date: 18 February 2020
Orbit: 832 x 851 km, 71.0° (Epoch: 29 March)

Event Time Altitude Azimuth Distance (km) Brightness Sun altitude
Exits shadow 04:39:17 36° 172° (S) 1,298 4.2 -30.3°
Maximum altitude 04:41:31 63° 105° (ESE) 922 3.5 -29.7°
Drops below altitude 10° 04:47:01 10° 25° (NNE) 2,434 5.8 -28.4°
Sets 04:49:28 0° 22° (NNE) 3,370 6.5 -27.8°
